Location: Unspecified
(0.0000°N, 0.0000°E)
Time: 23:18:00
(UTC+00:00)

Hubble Space Telescope - Pass Details

Date: 31 January 2021
Orbit: 536 x 539 km, 28.5° (Epoch: 25 February)

Event Time Altitude Azimuth Distance (km) Brightness Sun altitude
Rises 19:24:54 0° 306° (NW) 2,666 4.9 -17.0°
Reaches altitude 10° 19:27:11 10° 309° (NW) 1,778 3.8 -17.6°
Maximum altitude 19:31:15 61° 30° (NNE) 604 0.7 -18.5°
Enters shadow 19:32:11 47° 85° (E) 716 0.9 -18.8°
